Theta_e
341 342 342 343 343 344 345 344 345 345 345 345 345 346 345 345 345 345 343 343 341 338 338 339 338 336 334 335 337 336 335 336 336 337 338 336 334 333 333 335 336 338 340 341 342 342 342 341 339 338 338 339 338 337 338 338 337 337 336 336 336 335 335 334 334 335 336 335 335 335 335 334 334 334 334 332 330 330 332 334 334 334 334 334 335
342 344 344 346 345 345 346 346 346 346 346 346 346 346 346 345 345 346 346 345 344 340 338 339 338 337 334 334 337 337 335 335 335 336 337 338 336 334 334 334 333 336 339 340 341 342 342 342 340 339 339 339 338 337 338 339 338 337 337 336 335 335 335 336 335 335 335 335 335 335 335 335 334 335 335 335 334 332 331 332 333 334 334 335 335
343 344 346 346 346 346 347 347 347 346 346 346 346 346 346 346 345 346 346 345 346 342 340 340 338 338 336 333 334 336 335 334 334 335 336 337 336 336 336 335 332 333 337 339 340 342 342 342 341 340 340 339 338 338 338 339 339 338 337 337 337 335 334 335 335 335 335 335 335 335 335 335 335 335 336 336 336 335 334 332 332 333 334 334 334
344 345 346 347 347 347 347 347 347 346 346 346 346 346 346 346 346 346 345 345 346 343 340 340 338 337 338 336 333 334 336 335 334 335 335 336 336 336 337 336 334 333 334 337 339 341 342 342 341 341 341 340 339 338 339 339 338 338 338 338 338 337 336 335 335 335 334 334 334 334 335 335 335 335 336 336 336 336 336 335 334 333 333 333 333
344 346 346 347 347 347 347 347 347 346 346 347 347 347 347 347 346 346 346 345 345 343 340 340 339 338 338 337 332 332 336 336 335 335 335 335 335 336 337 337 336 335 333 334 337 339 340 341 341 341 342 341 341 340 340 340 338 338 338 338 338 339 338 337 336 336 335 334 334 334 334 334 334 334 335 336 336 336 336 337 336 335 335 334 334
345 346 347 347 346 347 346 346 346 346 345 346 346 347 347 347 347 347 347 346 345 344 341 340 340 339 337 334 330 331 336 336 335 334 334 334 334 336 337 337 337 336 335 335 335 336 338 340 341 341 341 341 341 341 340 340 340 339 338 337 338 338 339 338 337 337 336 336 336 335 335 334 333 333 332 333 333 333 334 335 336 336 336 336 335
344 345 345 345 344 345 345 345 345 345 343 344 345 346 346 347 347 347 347 346 345 344 342 341 340 339 337 333 331 334 336 336 336 335 334 334 335 337 336 336 337 336 337 336 335 334 335 338 339 340 341 341 340 340 340 340 340 340 339 338 337 337 337 338 338 337 337 337 337 337 336 336 335 334 333 332 332 331 331 331 332 333 334 335 335
344 344 344 343 342 343 343 344 344 344 343 343 343 344 344 345 346 347 347 347 346 345 344 342 340 340 338 334 334 336 336 337 337 336 335 335 336 337 336 335 336 336 337 337 336 336 335 334 334 336 340 341 340 340 340 340 341 340 340 339 339 338 337 338 338 337 337 338 338 338 337 337 337 336 336 336 335 335 334 333 332 332 331 331 333
346 347 345 343 344 344 343 343 343 343 343 344 343 343 344 344 346 347 347 347 347 346 345 344 341 341 338 333 333 336 336 336 337 336 336 337 337 337 336 334 334 334 335 336 337 338 338 337 334 333 335 338 338 339 340 340 340 340 341 340 340 339 339 339 338 337 337 337 338 338 337 337 336 336 337 337 337 338 337 336 335 334 332 331 331
349 349 348 347 347 346 345 344 343 343 343 343 343 343 343 343 345 346 347 346 347 347 346 345 343 341 339 335 332 334 337 337 336 336 336 337 337 336 335 335 333 331 331 332 334 337 338 338 338 335 334 335 335 336 338 339 339 339 340 340 340 340 340 339 339 338 338 338 337 337 336 336 337 336 336 337 338 338 337 336 336 337 335 334 333
349 349 349 349 349 348 347 346 345 344 343 343 343 342 343 344 345 346 347 346 346 347 347 346 344 342 339 337 333 331 336 338 336 336 336 337 337 335 335 335 333 330 329 329 329 332 333 335 338 337 336 335 333 333 335 337 338 339 339 339 340 340 340 340 339 339 339 338 338 338 337 337 338 338 337 337 337 337 336 337 337 337 337 337 336
349 349 349 350 350 349 348 347 346 345 343 343 343 343 344 345 347 347 346 346 346 347 346 346 345 342 338 338 335 331 333 337 337 336 336 336 336 335 334 335 333 329 327 327 326 327 328 331 334 335 335 335 334 333 333 335 336 337 338 339 339 339 340 340 339 340 340 339 339 339 339 339 339 339 338 338 338 337 337 337 338 337 337 338 338
349 349 350 350 350 349 348 347 345 344 343 343 343 344 345 346 347 347 346 346 346 346 346 345 344 342 338 335 334 333 332 336 337 335 335 336 336 335 334 335 334 329 327 326 325 326 326 327 330 330 331 333 333 333 333 333 334 334 335 337 337 337 338 338 338 340 340 340 340 339 340 341 340 339 339 339 339 339 338 337 337 337 338 338 338
348 348 350 351 351 350 348 347 345 344 344 344 344 345 346 347 347 346 345 345 346 346 345 344 342 341 337 331 331 334 334 335 336 333 333 335 336 336 334 335 334 329 327 326 325 325 325 324 325 325 325 327 328 330 332 333 334 334 335 335 336 336 337 338 338 338 338 339 339 339 339 340 340 339 339 339 339 339 339 338 337 337 338 338 338
347 348 350 351 352 351 350 348 347 347 346 345 345 345 345 347 346 345 345 345 346 345 344 343 341 337 331 328 331 334 335 337 336 332 332 334 336 336 335 335 334 330 327 326 324 323 322 322 323 324 323 323 323 324 327 330 331 332 335 336 334 333 334 335 336 337 337 337 338 338 339 339 339 339 339 339 339 339 339 339 338 338 338 338 338
346 348 350 351 352 351 351 350 350 349 348 346 346 345 345 346 346 345 345 344 344 344 344 343 338 332 329 330 332 334 336 338 337 335 334 334 336 336 335 335 335 330 327 326 324 321 320 323 326 327 326 324 322 320 321 324 327 328 332 333 330 327 325 325 327 330 331 332 332 333 332 332 333 334 335 337 338 338 339 339 339 338 338 339 338
346 347 349 351 351 351 351 351 350 350 348 347 346 346 345 346 346 345 344 343 343 343 341 336 331 331 333 333 335 336 336 337 338 337 337 337 336 335 335 336 335 331 327 326 324 322 323 326 328 328 327 325 323 319 317 320 323 324 327 327 325 323 319 317 318 319 320 322 321 321 320 321 321 322 324 326 328 330 332 334 337 338 338 338 338
345 346 348 349 350 351 351 351 351 350 349 348 348 346 345 346 345 343 342 342 342 341 335 328 328 333 336 336 336 337 337 337 338 337 337 337 336 335 335 336 335 331 327 326 325 324 325 328 329 329 329 327 324 321 318 317 318 318 319 319 318 318 317 316 316 316 316 316 316 315 315 315 316 316 316 317 318 319 321 324 328 330 331 332 333
343 344 346 348 349 350 351 351 350 349 349 349 348 346 344 345 343 341 340 340 340 337 330 326 329 334 337 336 337 337 337 337 337 336 336 336 336 336 336 336 335 331 327 326 326 326 327 329 330 330 330 330 328 324 319 317 318 319 319 319 319 319 319 319 319 319 318 316 316 315 315 315 315 315 315 315 315 315 315 316 318 319 320 321 323
342 343 345 346 347 348 349 350 350 349 349 349 348 345 344 343 341 338 337 337 335 331 328 328 330 333 336 336 336 336 337 337 337 337 336 336 335 335 336 336 335 331 328 327 327 327 327 328 330 331 330 330 330 327 323 321 323 324 324 323 322 322 322 322 322 322 321 319 318 317 317 317 316 316 315 315 315 315 314 314 314 314 315 316 316
342 342 343 344 345 346 347 349 349 349 349 349 347 345 343 341 338 335 333 332 330 326 326 330 331 332 334 335 335 335 336 336 337 337 336 335 334 334 335 335 335 332 328 327 328 328 327 327 330 331 331 331 331 330 328 327 327 327 326 325 325 325 325 324 324 324 323 322 321 320 320 319 318 317 316 317 317 317 317 316 316 315 315 315 315
341 341 341 343 343 344 347 348 349 350 349 348 347 345 342 339 335 332 331 329 326 324 326 330 332 332 332 333 333 334 334 335 335 337 337 335 334 333 333 334 334 332 329 328 327 328 328 328 329 331 332 331 331 331 331 330 330 329 328 327 327 327 327 326 326 325 325 324 323 323 322 322 321 320 318 318 318 318 318 317 317 317 317 316 316
340 340 339 340 341 344 347 349 350 350 350 348 347 345 341 337 332 329 329 328 325 324 326 330 332 333 332 331 330 331 332 333 334 336 337 336 334 333 333 333 333 332 330 329 328 328 328 328 329 331 332 332 331 331 331 331 331 331 330 329 329 328 328 327 326 326 325 325 324 324 323 323 322 322 321 320 319 319 318 318 317 317 317 317 317
340 338 337 338 340 344 348 349 349 349 348 346 345 343 339 335 330 327 328 328 326 326 327 329 331 333 334 333 331 330 329 330 334 336 336 336 335 335 334 333 332 332 331 330 328 328 329 329 329 330 332 332 331 330 330 330 331 331 331 330 330 329 328 328 326 326 326 325 324 324 324 324 323 323 323 322 321 319 318 317 317 317 317 317 317
338 336 336 337 341 345 348 348 347 347 346 344 342 341 337 332 327 326 327 328 328 328 327 328 329 331 333 334 333 331 329 329 332 334 335 335 334 334 334 333 332 332 331 330 330 329 328 329 330 330 331 331 331 331 330 330 330 330 330 330 330 330 329 328 327 327 327 326 325 324 324 324 324 324 324 324 323 321 319 318 317 317 318 319 319
336 335 335 339 343 345 347 347 347 347 346 343 340 338 335 329 325 326 326 328 329 329 328 328 329 330 332 333 334 333 331 330 331 332 333 333 333 332 332 332 331 331 331 330 330 330 330 330 330 330 331 331 332 332 331 331 330 329 329 329 330 330 329 329 328 328 328 328 327 326 325 325 325 324 324 324 324 324 322 321 320 319 320 320 321
336 335 335 339 344 346 346 346 346 347 345 341 338 336 332 327 325 326 327 327 328 328 328 328 329 330 330 330 331 332 332 331 331 331 331 332 333 332 331 331 330 330 330 330 330 330 330 329 330 330 331 332 333 332 331 331 330 330 329 329 329 329 330 329 329 329 329 328 328 327 327 327 326 326 325 325 325 325 324 324 323 322 322 322 321
336 336 335 339 345 345 344 344 345 345 342 338 336 335 331 327 325 326 327 327 327 327 327 327 329 331 331 329 328 329 331 332 332 331 331 332 333 332 331 331 330 330 330 329 329 329 329 329 330 330 331 332 332 332 331 330 331 330 329 329 329 328 328 328 328 328 328 327 327 327 327 327 327 326 326 325 325 325 325 324 323 323 322 322 321
336 336 335 338 344 345 344 344 345 345 341 336 335 334 332 329 326 326 327 327 326 326 326 327 328 330 331 329 327 326 329 331 332 331 331 332 333 332 332 331 330 330 330 330 330 330 330 331 331 331 330 330 331 331 330 330 330 330 329 329 328 326 325 326 326 326 325 325 325 324 324 325 325 326 326 326 325 325 325 325 323 322 322 321 320
337 336 336 339 343 345 345 344 345 345 342 336 334 335 334 331 328 326 327 328 327 326 326 326 327 328 329 329 327 324 325 329 331 331 331 333 334 332 331 331 330 330 330 331 331 331 331 332 331 331 329 329 329 330 330 330 329 329 329 328 326 324 325 325 325 324 323 323 322 321 320 321 322 324 326 326 325 325 324 325 325 323 322 321 321
338 336 336 339 343 345 345 345 345 345 343 339 336 336 336 333 330 328 326 327 327 326 325 325 325 326 327 327 326 324 323 324 328 330 330 331 333 332 331 331 331 331 331 331 332 332 332 332 332 331 330 328 329 330 330 329 328 328 328 326 324 324 325 324 324 324 324 324 323 321 319 318 319 321 323 325 325 324 324 325 325 325 324 323 323
339 337 336 339 342 344 345 345 345 345 344 342 338 337 337 336 332 328 327 327 326 325 325 325 325 326 326 325 325 325 323 321 325 329 330 330 331 332 332 333 332 332 332 332 333 333 332 332 331 330 328 328 328 328 327 326 326 326 326 325 324 325 326 325 326 326 327 327 326 324 321 318 318 318 320 321 323 323 324 324 325 326 326 326 325
340 338 336 337 340 343 345 345 345 345 345 343 340 338 337 337 334 329 328 327 326 325 324 325 325 326 326 325 325 326 324 321 322 326 330 331 331 333 334 334 334 333 333 333 333 333 332 332 331 329 327 327 327 326 326 325 325 326 325 325 325 326 327 327 327 328 328 328 327 325 321 318 318 319 319 320 321 322 323 323 324 325 326 326 327
340 339 337 336 338 342 344 345 345 345 345 344 342 339 337 338 336 332 329 328 326 325 324 324 324 325 326 325 324 325 324 322 321 324 328 331 332 333 334 334 334 333 333 333 332 332 332 332 331 330 328 327 327 327 327 327 327 326 326 326 326 327 328 328 329 329 329 329 328 325 320 318 318 319 319 320 321 322 322 323 323 323 323 324 325
341 339 338 336 336 339 342 344 345 344 345 345 343 340 337 337 339 336 332 330 327 325 323 322 322 324 325 325 324 326 326 324 321 321 324 327 329 332 334 334 334 333 333 334 333 333 333 333 332 331 329 328 328 328 328 328 327 327 327 327 327 327 328 328 328 329 329 330 328 325 321 319 319 320 320 320 320 321 322 322 323 323 323 322 322
342 339 338 337 336 337 339 342 344 344 344 344 344 341 337 336 339 339 337 334 331 328 324 322 321 322 323 323 324 325 326 325 324 322 322 323 326 330 333 334 334 334 334 334 334 334 333 333 332 331 330 329 328 329 329 328 328 328 328 328 327 327 328 327 326 327 329 329 328 325 321 318 318 320 321 321 321 321 321 321 322 323 323 323 323
343 339 338 338 337 336 337 339 342 343 343 344 343 341 338 336 337 340 340 338 335 333 330 327 324 322 322 321 322 324 326 326 325 324 324 323 324 328 332 334 334 333 334 335 335 334 333 333 332 331 330 328 327 328 328 328 328 328 327 327 327 327 328 328 326 326 327 327 326 323 319 317 317 318 320 321 321 322 322 321 321 320 320 320 320
345 341 338 338 337 336 337 337 339 341 342 343 343 342 340 338 337 339 341 341 339 337 336 334 332 329 327 325 324 324 325 325 326 326 326 327 327 328 329 331 333 333 334 335 335 334 333 332 332 331 329 328 327 328 329 329 328 327 327 327 328 329 329 328 327 326 325 324 323 321 319 318 318 317 318 319 319 320 320 320 319 318 318 317 317
346 342 337 337 337 336 336 336 337 339 340 341 341 341 341 340 339 339 340 342 342 341 339 339 338 338 337 334 332 330 328 328 328 326 324 325 328 330 329 330 332 333 334 335 335 334 333 332 332 331 329 329 328 328 328 328 329 329 330 331 330 330 329 328 327 326 326 324 323 322 321 320 318 317 317 317 318 318 318 318 317 317 317 317 317
346 342 338 336 336 336 336 336 337 337 339 340 340 341 341 341 341 340 340 341 342 343 342 341 340 340 341 341 340 339 337 335 332 327 324 323 325 328 331 330 331 333 333 334 334 334 333 332 332 331 330 329 328 328 327 328 330 331 332 331 330 329 329 328 327 327 327 326 325 324 323 321 319 318 319 319 319 319 318 317 317 317 317 317 317
345 342 338 335 335 335 335 336 336 337 338 339 339 339 340 341 341 341 341 340 341 342 343 343 343 342 342 343 344 343 343 342 339 334 331 328 324 327 331 332 332 333 333 334 334 334 333 332 331 331 330 330 329 328 328 329 331 332 331 331 330 329 329 328 327 327 328 327 326 325 324 322 321 320 321 321 320 319 319 318 317 317 317 317 317
344 342 340 337 335 335 335 335 335 336 336 337 337 338 339 340 341 341 341 341 341 342 343 344 345 344 344 344 345 345 344 345 344 341 338 334 329 328 330 332 334 334 333 334 334 333 333 332 331 331 331 330 329 330 330 331 331 331 330 330 330 329 328 328 327 327 328 327 326 326 324 323 322 321 321 321 321 320 318 318 317 317 317 317 317
343 341 341 338 335 334 334 334 335 335 335 335 335 337 338 339 340 341 341 342 342 342 343 344 345 346 346 346 345 346 345 345 346 344 342 340 333 327 328 332 334 334 334 334 334 334 333 332 331 331 331 329 328 329 330 330 329 329 328 328 328 328 328 328 328 328 328 327 326 326 324 321 321 321 321 320 320 319 318 317 317 317 317 317 316
343 341 340 338 337 336 334 333 333 334 334 334 334 336 337 338 340 340 341 342 342 343 344 344 346 346 347 347 346 346 346 346 346 345 343 342 336 329 329 333 334 335 334 334 334 334 333 333 331 329 329 328 327 328 329 329 327 327 326 327 328 329 329 328 328 328 327 326 325 324 323 320 320 321 320 319 319 318 318 317 317 317 317 316 315
345 342 340 338 338 338 335 333 332 332 332 332 333 334 336 337 339 340 341 342 343 344 344 345 346 347 348 349 348 346 346 345 346 345 343 341 336 329 330 334 335 334 334 334 334 334 333 333 331 328 327 327 327 328 328 326 325 325 325 326 328 329 328 328 328 327 326 324 323 323 322 320 320 320 319 318 318 318 318 317 317 317 317 316 314
349 347 343 340 339 338 335 333 332 331 330 330 331 333 335 336 338 340 342 343 343 344 345 346 347 348 349 349 349 347 346 345 346 345 342 340 336 330 330 334 333 332 334 334 333 333 333 331 328 326 327 328 328 326 324 322 322 323 325 326 328 328 328 327 326 324 323 322 322 321 320 319 319 318 318 318 318 318 317 317 317 316 314 311 309
351 350 347 344 341 338 336 335 333 331 329 329 330 331 333 335 338 340 343 344 344 345 346 347 348 349 350 350 350 349 347 346 347 345 341 340 336 331 331 334 334 334 335 333 331 331 331 328 326 326 328 328 326 323 320 320 322 325 326 327 328 327 326 325 323 322 321 320 320 319 319 318 318 317 317 316 315 314 313 313 311 310 308 306 305
352 351 351 348 345 343 341 339 335 331 328 329 330 331 332 335 337 341 344 345 346 347 347 348 349 350 350 351 351 351 349 348 347 345 342 340 336 332 331 334 335 335 334 331 328 327 326 325 326 328 327 325 323 321 320 322 324 326 327 327 326 325 324 322 321 320 319 318 318 318 318 317 315 313 311 310 308 307 306 306 305 305 305 306 308
352 352 352 352 350 348 346 342 336 331 328 329 329 330 331 334 338 342 345 347 348 348 348 349 350 351 351 352 352 352 351 349 347 345 341 339 336 332 331 333 335 335 333 329 326 324 323 324 326 326 325 322 321 321 322 324 325 324 325 324 323 322 320 319 318 318 318 318 317 316 315 313 311 308 307 305 304 303 303 303 304 305 307 309 310
353 353 353 353 352 352 350 343 336 333 331 330 329 330 332 335 339 343 346 348 348 348 349 350 351 352 353 353 352 352 351 350 348 344 340 338 335 332 333 335 336 335 332 329 325 323 323 324 325 323 321 321 322 323 324 323 322 321 321 321 320 318 318 317 317 318 318 317 315 314 312 311 309 307 305 304 303 302 303 304 305 306 308 309 310
353 353 353 354 354 354 352 347 341 338 337 335 333 334 335 338 341 345 347 349 349 349 350 352 353 353 353 353 352 352 351 349 348 344 340 337 334 332 334 336 335 334 332 329 324 322 323 323 322 320 321 323 323 323 321 318 318 317 317 317 317 317 317 317 317 316 315 314 314 313 312 311 307 305 305 306 305 303 303 305 307 307 308 308 308
Wind_Speed
9 8 8 8 9 9 8 7 7 7 7 6 5 4 2 1 2 2 2 3 4 4 6 5 3 2 1 1 0 0 2 3 1 2 2 2 2 2 1 1 2 4 6 7 8 9 9 9 9 9 10 9 8 8 8 8 7 7 7 7 7 7 7 7 7 7 7 7 6 7 6 5 5 4 4 3 3 4 4 4 5 5 5 5 4
10 9 8 8 9 10 9 8 8 7 6 5 5 4 2 1 1 2 3 3 4 5 7 6 3 3 1 0 0 1 2 4 3 2 1 1 1 2 3 2 1 3 5 6 7 9 9 9 10 10 10 10 9 9 8 8 8 8 7 8 7 7 7 7 7 7 7 7 7 7 7 7 6 6 5 5 4 4 5 5 6 6 6 6 5
11 10 9 8 10 10 9 9 8 7 6 5 5 4 3 3 2 3 4 5 6 6 7 5 4 5 4 2 2 2 2 3 4 3 2 2 2 0 2 4 3 1 4 6 6 8 8 8 9 9 9 9 9 9 9 9 9 9 8 8 8 8 8 8 8 8 8 8 8 8 8 7 7 7 7 7 6 6 6 6 6 7 7 7 7
11 11 10 9 9 9 9 9 8 7 7 7 6 5 4 4 4 4 5 5 7 7 6 5 5 6 6 5 4 4 3 3 4 4 3 4 4 2 1 2 3 2 2 3 6 7 7 7 8 8 8 9 9 10 10 10 10 9 10 10 10 9 9 8 8 8 8 9 9 9 9 8 8 8 9 8 8 8 8 8 7 7 8 8 8
12 11 10 9 8 8 9 9 8 8 8 7 7 6 6 6 6 6 6 5 6 7 7 7 6 7 7 7 7 5 4 4 4 5 5 5 5 3 2 1 1 2 2 2 4 4 4 6 7 7 9 9 10 10 10 11 10 10 10 10 10 10 10 10 9 9 9 9 9 9 9 9 9 9 10 10 9 9 10 10 9 9 9 9 9
13 11 10 9 8 8 8 8 8 8 7 7 7 7 7 7 7 8 8 6 6 8 10 9 8 8 7 7 6 5 3 4 3 5 5 5 5 3 1 1 1 1 1 1 3 2 2 5 6 8 9 10 10 10 11 12 10 10 10 10 10 11 11 11 11 11 10 10 10 10 10 10 9 10 10 10 10 10 10 10 10 10 11 10 10
13 12 11 10 10 9 8 7 8 8 8 8 8 8 8 8 9 11 10 7 8 9 11 11 9 8 8 6 4 4 3 2 2 3 3 3 4 3 1 0 1 1 1 1 2 2 2 4 6 7 9 9 9 9 10 11 11 11 11 10 10 11 11 11 11 11 11 12 11 11 11 10 10 10 10 10 10 10 10 10 10 10 11 11 11
14 13 12 11 11 10 9 9 9 10 10 10 10 10 10 10 10 12 12 9 9 9 11 12 10 9 8 6 4 4 4 3 3 3 3 4 4 3 1 2 1 1 0 1 2 2 2 3 5 6 7 7 7 7 8 9 10 12 12 12 11 12 12 12 12 11 11 12 12 12 12 12 12 11 11 11 11 10 10 10 10 11 11 11 11
13 12 12 11 11 11 10 10 10 11 11 11 11 11 11 12 12 12 12 11 10 10 11 13 12 10 9 7 6 5 5 5 3 2 3 5 5 3 2 3 3 2 2 0 1 2 2 3 4 5 6 6 6 7 8 8 9 11 12 12 13 13 13 13 13 12 12 13 12 12 13 13 13 13 13 13 13 13 12 12 12 12 12 12 12
12 11 12 12 11 12 11 11 12 12 12 12 12 12 13 13 13 13 13 12 12 11 11 13 13 12 11 9 7 7 7 6 4 2 3 5 5 3 2 3 4 3 3 1 0 1 2 2 3 3 5 6 6 7 7 9 9 10 10 10 12 14 14 15 15 13 13 13 13 13 14 14 14 14 14 13 14 13 12 12 13 14 13 12 12
13 12 12 12 12 13 13 12 13 13 13 13 13 13 13 14 14 14 13 13 13 12 12 13 14 13 12 11 9 8 8 7 6 4 3 4 5 3 1 2 3 4 3 2 2 0 1 1 1 2 2 4 6 7 8 9 9 9 8 9 11 12 13 14 15 14 13 14 14 15 16 15 15 15 15 14 14 14 13 13 14 15 15 14 13
14 13 13 13 13 13 13 13 13 14 14 14 13 13 14 14 14 13 12 12 12 12 13 13 14 14 13 12 11 10 9 8 8 6 5 4 4 3 1 1 2 3 4 4 4 2 1 1 1 2 1 1 3 5 7 8 9 9 8 8 9 9 10 11 12 12 12 14 14 15 16 16 15 16 16 15 14 14 15 14 14 16 16 16 15
15 14 13 13 13 13 13 13 13 14 13 13 13 14 14 14 14 12 12 12 12 12 12 12 14 15 13 12 12 11 10 9 9 8 8 7 6 5 2 1 2 3 3 5 5 4 3 1 1 2 2 1 1 3 4 6 7 8 8 8 9 8 8 9 10 10 11 12 13 14 15 15 15 15 16 16 14 14 15 15 15 16 17 17 16
16 15 15 14 14 14 13 13 13 13 12 12 13 14 15 14 14 13 13 12 11 11 12 12 13 14 13 11 11 11 10 9 9 9 10 10 8 7 5 3 2 2 2 4 5 4 3 2 2 2 2 2 2 2 4 4 5 6 7 7 8 8 8 8 9 9 10 10 11 13 13 13 14 15 15 15 14 14 15 16 16 17 18 18 18
17 16 16 16 15 14 14 14 14 13 13 13 14 14 15 16 15 14 13 12 11 12 12 13 13 13 11 9 9 10 9 9 9 9 10 12 10 8 7 5 3 2 2 3 5 5 5 5 5 5 4 2 2 2 4 5 5 5 5 5 6 6 6 6 7 8 8 8 9 10 10 9 10 11 12 13 13 14 14 16 16 17 18 19 19
18 18 18 16 15 15 15 15 15 14 14 14 15 15 16 16 15 14 13 12 11 12 13 13 14 12 9 8 8 9 8 8 9 9 10 11 11 10 9 7 4 2 1 2 4 6 6 5 7 7 6 3 2 3 4 5 6 6 5 4 4 5 4 5 5 6 7 7 8 9 8 8 8 9 10 10 11 12 12 13 14 15 16 17 17
19 19 19 17 16 15 15 16 15 15 15 15 15 15 15 15 15 14 13 12 11 12 13 14 14 11 9 7 6 7 8 9 9 10 10 10 10 10 9 8 5 3 2 1 4 5 4 5 7 8 8 6 2 2 3 5 5 6 6 6 5 5 5 5 5 5 6 7 7 8 8 8 8 8 9 9 10 11 11 12 12 12 13 13 14
20 20 19 18 17 16 16 16 16 16 15 15 15 15 15 15 14 13 12 12 12 13 13 13 13 13 11 9 6 5 7 9 11 11 10 11 11 10 10 9 7 5 3 2 4 4 3 4 7 7 7 8 6 3 2 2 2 3 3 4 4 4 4 4 4 4 5 6 7 7 8 8 8 8 8 8 8 8 9 10 11 11 12 12 13
20 20 20 19 18 17 16 16 16 17 16 17 16 15 15 15 14 14 13 13 14 13 13 13 14 14 13 11 10 7 6 9 12 11 10 11 12 12 12 11 9 7 5 4 4 5 3 3 5 5 6 7 7 5 3 2 2 2 1 1 1 2 2 3 4 5 5 6 6 7 7 8 8 8 8 8 8 7 7 8 9 10 11 12 12
21 21 21 20 19 18 18 18 18 18 18 17 16 15 15 15 15 15 14 14 14 14 13 14 15 15 14 13 12 11 9 9 11 12 12 11 12 14 14 13 12 10 8 6 5 5 3 0 2 4 4 5 6 6 5 4 4 3 3 2 1 1 2 3 4 5 5 6 6 7 7 8 8 7 8 8 8 8 8 8 9 9 9 10 10
22 22 22 21 20 19 18 19 19 18 18 17 16 15 15 16 16 15 15 15 14 14 14 15 15 15 15 15 14 13 13 12 11 12 13 12 12 14 14 14 14 13 10 8 6 6 4 3 1 2 3 3 3 4 4 4 4 4 4 4 4 4 4 4 4 5 6 6 7 7 8 8 8 7 7 8 8 8 9 9 9 10 10 10 10
23 23 23 22 21 19 19 19 19 19 18 17 16 16 16 16 16 15 14 14 14 14 15 15 15 15 15 15 15 15 15 15 13 12 13 14 13 12 13 14 16 14 12 10 8 7 6 5 4 3 2 3 2 2 2 2 2 3 3 4 4 5 5 5 5 5 6 6 7 8 9 9 9 8 7 7 8 8 9 9 10 10 11 11 11
24 24 24 23 22 21 21 20 19 19 18 17 16 16 16 16 16 15 14 13 13 14 15 16 15 15 15 15 15 15 16 16 15 13 13 14 14 12 12 13 15 15 13 11 9 8 8 7 6 5 4 3 2 1 0 0 0 1 3 4 4 5 5 6 6 5 6 6 7 8 9 10 10 10 9 9 9 10 10 10 10 10 11 11 12
26 26 25 24 23 22 22 21 20 19 18 16 16 16 15 16 16 15 14 13 13 13 15 16 16 16 16 15 13 14 15 15 14 13 12 13 14 13 12 12 14 15 14 13 12 11 10 9 8 8 7 6 4 3 2 2 2 2 3 3 4 5 6 6 6 5 6 7 8 9 9 9 10 10 10 11 11 12 12 12 11 11 11 11 12
28 27 26 24 23 23 23 22 20 18 17 16 16 16 16 16 16 15 15 15 14 13 13 14 14 14 14 14 14 13 13 14 15 14 12 12 13 12 12 12 13 13 14 14 14 13 12 12 11 10 10 9 8 6 4 4 4 4 4 4 5 6 7 7 6 6 7 8 9 9 9 10 10 10 10 11 11 12 12 13 13 13 13 13 13
28 28 26 24 24 24 23 22 20 18 17 17 16 16 16 16 16 16 15 15 15 13 13 13 12 13 14 15 15 14 13 13 15 15 14 12 12 11 11 12 12 12 13 14 14 14 13 13 12 12 12 11 10 9 8 7 7 7 7 7 7 7 8 9 8 8 8 8 9 9 10 10 10 11 11 11 12 12 13 14 14 15 15 15 16
28 28 26 25 24 24 23 22 20 18 17 17 17 16 17 17 17 16 16 15 15 14 13 13 12 12 13 15 16 16 15 14 15 16 16 14 13 11 10 10 11 11 12 13 14 14 13 13 13 13 13 12 11 11 11 10 9 9 10 10 10 9 9 10 10 10 10 10 10 11 11 11 11 12 12 13 13 13 14 14 15 16 16 17 18
28 28 27 26 25 24 23 22 20 18 17 17 17 17 17 17 17 17 16 16 15 14 13 13 13 12 13 15 16 16 16 15 15 16 17 16 14 13 12 11 11 12 13 14 15 14 14 13 13 13 13 14 13 13 13 12 11 11 12 13 13 12 11 12 12 12 12 12 12 12 13 13 13 13 14 14 14 14 15 16 16 17 17 18 18
29 29 28 27 26 24 23 22 20 19 18 18 18 18 18 18 18 17 16 16 16 15 14 15 14 13 13 14 15 16 17 18 17 16 17 17 16 15 14 13 13 13 14 15 15 14 13 12 12 13 13 14 15 15 14 13 13 13 13 13 14 14 13 13 13 14 13 13 14 14 15 15 15 15 15 15 16 16 16 16 17 18 18 18 18
29 30 29 28 27 25 24 23 21 20 19 19 19 18 19 19 19 18 17 17 17 16 15 16 15 14 14 14 15 16 18 19 19 18 17 17 17 16 15 14 13 14 14 15 16 15 13 13 14 15 15 14 14 14 13 13 13 13 13 14 14 14 14 14 13 13 14 14 15 15 16 16 17 17 17 17 17 17 17 16 17 17 18 18 18
30 30 29 29 28 26 25 24 22 21 20 20 20 20 20 20 20 19 18 19 19 18 17 17 16 16 16 16 16 16 17 19 20 19 18 17 17 16 15 15 14 14 14 14 16 16 15 16 16 17 16 15 14 14 14 14 14 14 14 14 14 13 13 13 14 14 15 16 16 16 16 17 17 18 18 18 18 17 17 17 17 17 18 18 19
31 30 30 29 28 27 26 25 24 23 22 22 22 22 21 21 21 20 19 20 21 20 19 19 18 18 17 17 17 17 17 19 20 21 20 18 17 17 16 16 14 14 14 14 17 19 18 18 18 16 15 15 15 15 15 15 15 15 15 15 13 13 14 14 15 16 17 17 17 17 17 17 17 18 18 19 19 18 18 17 17 18 18 19 19
31 31 31 30 29 28 27 26 25 24 23 23 23 23 23 22 21 21 20 21 22 21 21 21 21 20 19 19 18 17 18 20 21 22 22 21 20 19 18 17 16 16 16 16 18 20 19 17 15 14 14 15 15 15 15 14 15 15 15 14 13 14 15 17 18 19 19 18 18 18 18 18 17 17 17 18 18 18 19 19 19 19 19 19 20
32 32 31 30 29 29 28 27 26 25 25 24 24 24 24 24 22 21 21 22 22 22 22 23 23 22 21 21 20 19 19 20 21 22 24 24 23 22 20 19 17 16 16 16 18 19 18 16 14 13 13 14 15 15 15 15 15 15 14 14 14 15 16 17 19 20 19 19 19 18 18 18 18 17 17 17 17 18 19 20 21 21 22 22 22
33 33 32 31 30 30 29 29 28 27 27 26 26 26 26 25 24 23 22 22 23 23 23 23 23 23 23 23 22 20 20 21 21 21 23 25 25 25 23 21 19 17 16 17 18 18 17 16 15 14 13 14 15 15 16 17 16 15 15 15 15 16 16 17 18 19 19 19 17 16 17 18 18 17 16 17 18 19 20 21 22 23 24 24 24
34 34 33 33 32 32 31 31 30 29 29 28 27 27 27 27 26 24 23 23 23 24 24 24 23 23 24 23 23 22 22 22 22 21 22 24 26 26 25 23 21 19 18 17 17 17 17 17 17 16 14 14 15 15 16 17 16 15 16 16 17 17 17 18 20 20 19 17 15 15 15 17 18 18 17 17 17 19 20 22 23 24 24 25 25
36 35 35 34 34 33 33 32 31 30 30 29 28 27 28 28 28 26 25 24 24 24 24 24 24 24 24 23 23 23 23 23 23 22 22 23 25 27 27 26 23 21 19 18 17 17 18 19 19 18 16 15 16 16 15 15 15 16 16 17 18 19 19 20 20 20 18 17 15 15 17 19 20 19 19 19 19 20 20 22 24 26 26 27 28
37 36 36 36 35 34 34 34 33 32 31 30 29 28 28 28 28 28 27 26 26 24 24 25 25 25 24 24 24 24 25 24 23 23 23 23 24 26 28 28 26 23 21 20 19 19 20 20 20 19 18 17 17 17 15 15 16 18 18 19 20 20 20 21 21 20 19 18 18 18 20 22 23 23 22 22 23 23 24 25 26 27 27 27 28
37 37 37 37 36 35 35 35 35 34 33 32 30 29 29 29 29 29 28 28 27 26 25 25 25 25 25 25 25 26 26 25 23 21 22 24 25 26 27 28 27 26 24 22 21 20 20 20 20 20 19 18 18 18 17 17 18 20 22 22 23 23 22 21 22 22 21 21 21 22 24 25 25 26 25 24 25 26 27 27 27 26 25 25 25
38 38 39 38 37 37 37 37 36 36 35 33 31 30 30 30 29 30 29 29 29 28 27 26 26 26 25 26 27 27 27 26 24 22 22 23 25 26 26 26 27 26 25 23 22 21 20 21 20 20 19 19 19 19 19 20 21 23 25 24 23 24 23 23 24 25 24 23 22 23 25 25 25 25 24 24 25 27 27 27 26 25 23 23 23
38 38 39 39 39 39 39 39 38 38 37 35 33 32 31 31 31 30 30 30 30 30 29 28 27 27 27 27 28 27 27 28 27 25 23 23 24 25 25 25 26 25 24 22 21 20 20 21 21 20 19 20 20 20 21 21 22 26 27 24 22 22 24 25 26 25 24 23 22 23 25 25 24 24 24 25 26 26 26 25 24 24 23 23 23
38 39 40 40 41 41 41 40 40 40 39 36 34 33 32 31 31 30 30 30 30 31 31 30 30 29 28 29 29 29 29 30 30 29 25 24 23 23 24 25 25 23 21 19 19 19 20 21 20 20 20 20 20 20 21 21 22 24 25 24 23 23 24 26 27 25 23 22 22 24 25 26 25 25 26 26 26 25 25 25 23 23 23 23 23
39 40 41 41 42 43 42 42 41 41 39 36 34 33 32 32 31 31 30 30 30 30 30 31 31 30 29 30 31 31 31 31 31 30 26 23 23 22 23 25 25 22 19 18 19 19 19 20 20 19 20 20 20 20 20 20 21 22 23 24 25 25 24 25 26 25 23 22 23 25 26 26 27 28 28 27 26 26 25 25 25 24 24 23 22
40 41 42 43 43 43 43 43 43 42 40 36 35 34 33 32 31 31 30 30 30 29 29 29 30 29 28 31 32 31 31 31 31 29 25 23 22 21 21 23 24 22 19 19 19 19 19 20 20 19 19 19 20 19 18 19 20 21 23 24 25 25 24 24 25 25 24 24 25 26 28 27 27 28 29 27 26 26 26 26 26 25 25 24 23
41 42 43 44 44 44 44 44 44 43 39 36 36 36 34 32 31 30 30 30 29 28 27 27 28 28 28 30 29 27 27 29 30 29 25 21 20 20 20 23 24 21 19 19 19 19 19 19 19 19 18 18 18 17 17 18 20 22 23 24 24 23 22 22 23 24 24 25 25 27 28 28 27 28 29 27 26 26 27 27 27 27 26 26 27
43 44 44 44 44 44 44 44 44 42 39 37 37 37 35 33 31 30 30 29 28 27 26 26 26 26 27 28 27 24 24 27 28 28 24 18 17 19 20 22 23 21 20 19 18 18 19 19 19 18 17 17 16 16 17 19 21 22 23 22 21 21 21 22 23 24 24 24 25 26 28 27 25 26 28 27 26 27 28 28 28 28 28 27 26
45 45 44 44 45 45 44 44 44 43 40 39 39 38 35 32 30 29 29 28 27 27 26 25 24 24 25 27 27 26 25 24 25 26 23 17 16 19 21 22 22 20 19 17 16 18 18 18 17 16 16 16 16 17 19 21 21 21 21 20 20 21 22 23 24 24 24 23 23 24 26 25 24 26 28 27 28 29 28 28 28 27 25 23 21
46 46 46 46 46 46 45 44 44 43 41 40 40 38 35 31 29 28 28 28 27 26 25 23 23 22 23 24 26 27 26 22 20 21 18 14 15 18 20 21 21 20 18 16 16 17 17 16 16 16 16 17 18 20 21 21 20 19 19 19 20 21 22 23 24 24 22 21 21 21 24 25 24 26 28 28 28 28 27 26 24 22 19 17 17
48 48 48 47 46 46 45 44 44 43 42 42 41 38 34 31 29 28 27 27 26 25 23 22 22 21 21 22 24 25 25 21 17 16 15 14 15 17 18 20 21 20 17 15 15 16 16 17 17 16 17 18 20 21 20 20 19 19 19 20 21 21 21 21 21 20 19 19 18 19 23 26 26 26 28 27 26 26 24 22 19 17 15 15 16
49 49 48 47 47 47 46 45 44 43 43 42 40 38 34 31 29 27 26 25 25 24 23 22 22 21 21 22 22 24 24 20 16 14 14 15 16 17 19 21 21 19 16 15 15 16 16 17 17 17 18 19 19 19 19 19 19 20 21 21 20 18 17 16 17 17 18 17 17 19 23 27 27 26 26 26 25 24 21 19 18 17 17 17 17
48 48 48 48 48 48 47 45 44 43 43 42 40 38 34 30 27 26 25 25 24 23 23 23 22 21 21 22 23 23 21 18 16 15 15 17 17 17 18 20 19 17 16 15 15 14 15 15 16 16 17 17 17 16 16 17 18 19 18 16 14 12 11 12 14 16 18 18 18 21 25 27 27 25 23 24 26 25 22 21 21 21 20 21 22
Wind_Direction
200 195 199 198 196 201 202 198 197 201 202 204 208 213 220 162 127 171 246 271 284 270 242 242 227 195 81 104 130 330 207 209 154 121 90 64 63 56 25 257 218 220 227 226 222 215 208 201 199 204 209 210 210 216 220 214 208 210 214 216 218 215 212 213 212 215 218 222 221 215 216 216 223 232 230 223 220 226 229 236 243 243 245 243 253
202 200 204 199 199 206 208 209 211 213 216 219 223 234 250 255 194 235 275 293 286 257 240 253 257 230 244 140 260 333 253 234 228 193 169 173 59 56 41 6 269 223 234 231 226 227 219 208 206 207 207 209 209 214 220 222 217 215 220 220 222 224 221 221 219 220 224 225 222 218 222 224 227 236 241 241 240 240 235 236 240 245 251 255 263
205 208 211 202 204 211 214 217 220 225 232 236 241 250 258 270 265 269 291 305 296 257 233 251 257 236 246 260 260 299 292 239 237 229 211 222 246 344 33 16 13 278 249 238 228 231 230 220 216 216 215 213 213 214 217 224 222 217 221 225 226 227 229 230 228 229 230 231 231 228 231 235 237 241 245 250 253 255 250 245 243 245 251 257 265
209 215 216 209 211 216 219 223 228 237 243 246 251 257 255 266 272 281 286 290 293 264 232 228 229 237 253 267 269 273 277 251 250 249 243 243 241 259 339 11 18 11 299 262 242 234 231 230 226 225 226 225 222 220 220 226 226 222 223 226 229 227 228 233 233 236 237 236 237 237 240 244 249 252 254 256 257 260 260 256 253 253 257 262 269
215 220 220 218 219 222 225 227 235 242 246 250 258 265 262 267 272 278 277 274 283 263 240 225 227 247 257 272 274 257 264 271 270 263 256 247 231 242 290 302 336 -0 2 317 268 249 229 228 224 224 230 232 230 226 226 229 229 230 230 230 234 233 231 234 236 238 241 242 241 243 245 248 253 257 260 262 264 266 266 264 263 263 264 266 272
220 224 224 227 227 227 230 231 239 245 250 254 260 269 267 274 274 269 268 261 264 256 245 238 241 253 259 282 278 238 251 273 269 260 248 235 220 216 263 290 278 261 12 344 291 281 230 222 219 223 229 231 232 229 228 231 230 235 238 234 237 242 239 237 240 242 243 245 244 246 248 251 254 257 258 261 264 265 266 267 267 267 269 269 272
224 228 232 237 239 237 238 241 249 252 256 258 260 269 270 276 276 275 277 260 249 253 249 245 245 250 258 284 275 213 220 235 225 234 221 207 202 185 115 0 255 235 233 279 289 289 232 224 226 230 233 234 236 234 232 235 236 238 241 237 238 246 248 244 245 248 249 251 249 248 252 255 257 259 260 258 257 259 262 267 270 270 271 271 272
225 231 238 243 245 247 247 248 254 257 262 264 264 270 273 277 276 278 285 267 245 251 254 250 244 244 252 264 254 217 209 195 184 198 192 194 192 171 101 75 100 180 206 231 259 277 258 235 240 242 245 246 240 238 240 240 240 240 239 238 238 243 250 251 250 252 255 257 256 255 257 258 259 262 264 264 264 262 261 262 265 266 266 268 270
223 231 238 243 248 252 253 253 259 262 265 268 270 274 275 276 275 276 282 275 258 253 254 253 250 247 246 247 243 228 213 197 182 175 195 210 200 177 134 93 90 93 86 103 241 268 284 270 261 252 254 259 246 239 244 247 247 245 241 240 240 242 247 252 251 250 254 258 260 260 260 260 259 260 262 265 269 269 268 267 266 265 262 261 263
223 231 237 243 250 254 255 257 262 265 268 270 273 275 275 277 278 278 276 273 267 261 255 253 252 251 245 244 246 235 220 212 205 178 192 213 204 184 143 95 86 81 73 54 0 258 270 285 283 263 255 260 257 250 248 252 256 254 250 248 247 247 248 250 250 249 253 257 260 261 261 261 262 263 264 266 269 269 273 275 270 266 261 259 263
223 230 238 245 251 254 256 259 264 267 268 270 273 275 279 280 279 278 274 267 265 264 258 252 249 248 244 246 250 238 225 222 221 212 201 206 202 196 152 79 71 60 55 43 36 7 286 298 326 320 273 263 265 265 257 256 259 260 264 264 259 255 253 254 256 255 257 261 262 263 264 264 265 268 269 269 269 268 270 273 270 267 267 267 270
224 230 239 246 250 253 255 259 264 265 266 269 275 279 280 279 277 276 271 262 259 258 256 251 245 243 242 245 250 244 233 230 230 228 224 220 221 227 234 45 43 50 54 46 36 27 15 343 333 -0 353 302 281 278 271 266 265 264 265 267 264 261 258 261 263 263 264 263 262 263 264 265 266 267 268 267 267 267 267 269 270 270 271 272 273
227 232 239 245 248 249 252 257 261 263 267 272 276 278 276 275 276 275 269 262 258 253 251 249 244 242 246 250 249 242 235 232 233 232 227 228 236 241 247 318 2 27 55 46 33 27 25 10 337 345 352 -0 334 301 288 275 272 273 273 270 268 267 268 271 272 272 271 266 263 263 264 265 265 266 267 267 268 268 269 269 270 271 273 274 274
231 235 238 244 246 247 250 255 260 264 270 273 274 276 274 274 276 276 274 268 260 248 243 245 245 248 256 256 242 231 229 229 233 231 221 224 233 242 251 267 318 349 39 40 33 35 39 50 50 32 13 -0 340 308 294 283 278 279 279 276 275 275 277 278 276 276 274 273 272 271 271 273 272 270 269 272 273 272 272 272 271 271 273 273 273
234 237 238 241 244 247 250 255 260 265 270 272 273 274 272 273 275 277 275 269 257 244 240 242 247 255 257 245 226 224 228 228 231 228 216 219 228 240 248 255 283 317 21 36 40 53 69 80 67 47 35 19 339 295 283 281 281 283 282 280 285 289 286 279 276 278 279 280 279 280 283 285 283 279 276 277 276 273 271 270 270 268 270 272 273
233 237 238 239 243 247 249 254 259 265 269 271 273 274 272 272 274 275 272 266 255 243 241 245 249 253 243 225 221 223 226 223 220 214 209 214 224 235 239 240 261 294 345 52 66 77 86 76 52 40 34 20 302 263 259 264 272 279 282 287 304 314 311 301 291 288 288 288 286 288 293 294 290 287 286 285 282 278 274 272 271 269 269 271 273
231 235 237 239 243 246 249 254 259 264 269 272 275 274 272 271 270 270 268 263 254 244 247 251 247 239 222 211 217 223 228 224 210 204 206 211 221 230 231 230 242 262 265 133 106 102 95 59 42 39 37 30 -0 279 259 256 261 269 275 285 300 311 316 319 311 302 298 297 296 298 300 300 296 293 290 286 283 282 279 276 274 271 269 270 273
229 233 236 239 242 246 250 254 259 264 269 273 275 274 273 271 269 268 265 259 252 247 251 248 236 225 216 212 211 218 233 226 210 207 209 213 221 226 224 225 232 241 237 186 145 130 102 49 39 36 37 38 33 15 325 266 256 263 270 278 289 302 318 333 337 333 325 317 315 314 314 312 309 305 299 294 291 288 284 280 277 274 272 271 271
230 233 235 238 241 244 248 253 259 263 267 271 271 271 272 270 268 267 264 257 252 252 249 239 230 224 220 221 221 222 235 230 219 217 217 218 222 224 224 224 226 232 228 204 175 155 129 51 39 33 34 40 41 36 41 89 108 101 102 275 292 308 333 350 356 354 347 341 334 327 323 318 314 310 305 301 297 293 288 283 282 280 278 276 273
231 234 236 238 240 243 247 251 256 260 264 268 268 268 268 266 266 264 260 255 252 251 242 233 231 230 226 228 231 232 239 242 235 231 234 236 231 227 226 224 225 230 222 208 198 184 179 103 39 35 34 38 44 49 60 82 89 80 74 69 58 37 15 5 -0 359 354 347 340 334 328 322 316 310 305 302 297 293 289 285 283 281 280 278 277
233 236 237 239 241 243 247 250 254 258 263 266 264 262 262 262 265 263 259 257 254 245 234 231 234 233 232 234 238 240 244 247 247 241 240 246 245 236 231 226 224 227 222 213 212 211 215 235 295 8 29 35 44 57 65 68 66 60 60 60 60 51 37 24 11 4 356 349 343 337 332 327 321 313 305 302 299 296 293 288 286 283 281 279 278
235 238 239 241 243 244 245 246 250 256 261 262 259 258 260 263 264 262 257 256 252 239 228 229 233 233 234 238 241 245 248 249 251 247 240 241 246 247 242 235 230 230 228 222 222 226 231 241 262 299 353 20 37 59 66 63 52 42 34 30 31 28 22 17 8 1 355 349 343 335 329 325 321 315 307 301 301 301 298 294 289 286 284 282 281
238 240 242 243 244 244 243 244 247 253 257 257 255 257 261 263 264 257 250 247 242 233 228 229 232 232 233 241 247 248 251 254 257 258 252 247 248 252 252 246 240 238 238 237 237 239 239 243 257 273 296 332 352 349 278 242 312 -0 359 358 356 356 359 358 354 350 347 344 340 335 328 321 315 310 305 300 298 299 298 297 292 288 286 284 283
240 242 243 243 242 241 241 241 244 249 253 253 252 255 259 260 259 252 244 238 232 227 229 231 232 233 235 242 251 252 252 254 257 259 260 259 258 261 261 253 244 242 243 244 246 250 249 249 256 264 275 295 309 296 263 249 248 274 309 325 329 328 331 337 339 337 338 338 336 335 330 325 318 310 304 300 299 298 297 296 295 293 290 287 285
241 242 243 241 238 237 238 241 243 248 251 252 251 252 255 256 253 246 237 234 230 227 230 232 233 237 241 245 251 256 256 253 253 253 254 256 257 261 263 258 252 249 249 247 249 254 256 257 263 269 276 289 300 295 275 261 256 253 264 283 296 303 310 320 325 323 326 330 330 330 329 328 325 318 311 304 299 297 295 294 293 293 293 292 290
242 243 243 241 237 235 238 241 244 249 252 251 250 250 252 251 246 239 233 232 232 231 234 236 238 244 248 249 251 256 258 255 254 253 252 250 252 258 263 261 258 257 254 251 251 256 260 264 268 271 276 283 289 290 284 276 266 254 255 262 270 281 294 306 312 312 314 318 320 320 321 320 319 317 312 307 302 298 295 293 290 289 290 290 291
243 244 245 242 237 235 238 242 244 248 250 248 246 246 247 246 240 235 230 230 232 233 236 239 242 248 254 255 254 254 254 254 255 254 252 250 252 258 261 260 261 261 258 255 256 263 269 273 272 272 275 276 276 281 284 284 279 267 262 266 270 273 282 296 303 303 303 305 306 306 307 308 309 308 305 302 299 296 294 292 290 289 288 288 289
242 244 245 243 238 236 240 243 245 248 248 244 242 243 244 243 238 232 227 226 229 231 236 241 243 248 257 261 258 255 252 253 255 254 251 250 251 256 259 262 264 266 269 269 272 279 285 285 283 283 283 279 276 279 284 286 285 279 272 273 278 280 283 292 298 299 299 299 298 297 297 298 299 299 298 296 294 292 290 288 287 287 286 287 287
242 243 244 242 238 238 241 244 246 248 245 241 240 241 242 243 240 234 228 227 231 233 237 243 246 250 257 262 262 257 252 252 256 257 251 247 248 252 257 263 266 269 275 281 287 293 296 297 298 298 293 286 280 279 281 282 284 282 278 279 284 289 292 295 299 301 301 300 299 297 295 294 293 293 293 293 293 293 290 287 285 284 284 285 286
240 242 243 241 238 239 242 244 247 247 243 240 240 241 242 242 241 237 231 230 233 234 238 244 248 251 256 260 262 259 252 250 254 259 255 247 246 249 252 258 264 267 273 283 290 294 296 300 304 304 299 289 280 277 277 278 279 278 276 279 284 291 295 298 300 300 299 300 298 297 295 293 292 291 290 291 293 295 295 291 287 283 283 283 285
238 240 241 240 239 239 241 244 246 246 243 239 240 242 243 243 242 238 232 231 234 234 236 242 246 250 255 259 262 261 256 251 251 254 255 250 247 247 248 253 259 265 272 280 284 287 294 299 301 301 298 290 282 278 278 279 278 275 274 277 282 290 295 295 294 293 294 295 295 296 297 295 292 289 288 289 291 292 293 291 289 285 284 283 283
237 238 239 239 239 239 241 243 245 245 244 241 240 241 243 244 244 241 236 235 236 236 236 240 244 247 252 256 260 263 260 253 249 250 252 251 250 248 248 251 255 261 268 273 278 285 291 295 297 298 294 288 282 279 278 278 277 275 274 276 281 291 294 290 287 290 292 292 290 292 296 298 295 292 289 290 290 290 289 289 288 286 284 283 281
237 237 237 237 238 239 240 242 244 244 245 243 241 241 242 242 242 242 241 239 240 239 238 239 242 245 249 252 256 260 260 255 250 248 250 251 252 251 249 250 252 257 262 267 273 280 284 286 290 292 288 282 278 276 276 276 275 275 275 276 284 292 292 287 285 288 291 291 290 291 295 298 298 295 293 291 290 289 288 287 287 286 285 282 280
237 236 236 236 237 239 240 241 242 243 245 244 243 242 242 242 241 242 242 241 241 241 240 240 241 243 247 250 253 256 259 258 253 250 250 252 253 253 252 252 253 254 257 262 265 269 274 280 284 286 282 277 275 274 275 277 278 276 275 278 285 291 291 289 288 288 288 290 290 291 295 299 300 298 295 291 289 287 285 284 284 284 283 281 279
237 236 235 235 236 238 239 241 241 242 244 244 243 242 242 242 241 241 243 243 243 242 242 243 244 246 248 250 252 254 258 259 257 254 253 253 254 254 254 255 255 255 257 260 262 266 274 280 284 285 283 276 272 272 273 276 277 275 275 279 284 290 295 297 296 293 290 290 291 292 296 303 305 302 296 291 288 287 285 284 281 279 278 278 277
238 236 235 235 235 237 239 240 241 241 242 243 242 241 242 242 242 242 243 245 245 244 244 245 247 250 252 253 255 255 257 259 260 259 257 256 256 256 256 257 258 260 263 262 264 270 277 281 284 287 286 278 274 273 273 275 276 275 276 279 284 291 298 302 303 301 296 293 292 292 299 308 310 307 301 295 291 289 288 288 287 286 284 282 279
239 236 235 235 235 236 238 239 240 241 242 243 243 242 242 242 243 243 244 246 246 246 246 248 249 252 255 257 259 259 258 258 259 260 260 261 260 259 259 259 260 262 264 265 268 274 278 281 284 285 285 282 279 278 276 276 277 278 279 281 286 292 299 304 306 305 300 295 293 295 302 308 309 307 303 298 293 290 289 289 290 290 290 288 286
241 237 235 235 235 236 238 239 239 240 242 243 244 244 244 244 244 245 245 246 248 249 249 250 251 253 256 259 261 262 261 260 260 262 265 265 264 263 262 262 262 263 264 267 271 276 278 279 281 282 283 283 282 281 280 280 282 285 286 287 289 293 299 302 304 304 299 295 295 297 301 305 306 304 300 297 294 292 292 293 295 294 293 290 287
241 238 235 234 235 236 238 239 239 240 241 242 243 244 246 246 246 246 247 248 250 251 252 252 253 255 257 259 261 263 264 264 264 267 270 269 267 266 265 263 262 263 265 267 270 273 276 277 278 279 282 283 282 283 285 286 288 290 289 291 292 293 296 298 301 301 296 291 292 293 297 302 304 300 297 296 295 295 296 299 301 301 297 292 289
240 237 235 234 234 236 238 239 239 240 241 241 242 243 245 246 247 248 248 249 250 252 254 255 255 257 258 260 262 264 267 267 265 265 269 270 268 265 264 263 261 262 263 264 265 268 272 275 275 277 279 282 284 288 291 291 293 292 293 297 299 297 297 297 299 300 295 290 289 291 295 300 301 298 296 297 298 299 302 304 305 303 299 295 293
239 237 235 234 234 235 237 238 239 240 240 240 240 241 243 245 247 249 250 251 251 253 254 255 256 257 258 260 262 265 267 269 268 265 263 266 265 262 260 258 259 261 261 259 261 266 271 272 272 273 277 282 287 291 292 292 294 295 299 306 306 303 301 300 300 302 297 291 291 293 297 300 299 298 298 299 302 305 307 307 306 303 299 297 295
238 236 235 234 233 234 236 238 239 239 240 240 239 240 242 244 247 250 252 253 253 254 254 255 257 257 258 260 262 264 265 267 269 268 265 264 263 260 258 256 256 259 256 255 260 267 270 269 270 274 277 282 287 290 289 290 293 295 300 306 306 304 303 302 303 305 299 293 293 294 297 300 300 300 301 303 307 309 308 308 307 304 301 299 298
236 236 234 233 233 234 235 237 239 240 240 239 239 240 242 244 247 249 252 254 255 255 256 256 258 259 260 262 262 265 267 268 271 273 273 271 266 260 257 255 255 254 251 254 262 267 268 268 271 275 277 281 285 286 286 288 291 295 299 302 303 304 305 303 302 304 301 296 294 293 296 300 301 302 303 305 308 308 307 308 308 306 303 301 299
235 235 234 233 233 234 235 237 238 240 240 239 239 241 242 243 246 249 252 254 256 257 258 259 260 262 263 264 264 267 268 270 274 277 275 270 263 256 253 253 251 251 253 257 261 263 266 268 271 274 277 281 283 283 285 289 292 296 300 301 302 303 302 298 297 299 300 298 296 296 298 301 302 302 303 305 307 306 305 307 306 304 302 301 299
234 235 234 233 234 234 235 236 238 239 240 239 240 241 242 244 246 248 251 254 256 259 261 262 263 264 264 264 266 270 270 269 272 275 274 269 256 247 246 247 247 250 253 254 256 259 263 265 269 274 277 280 281 282 288 292 295 298 300 301 302 300 296 294 294 297 299 299 300 300 300 303 305 303 302 305 305 303 303 305 305 303 302 301 300
235 236 235 235 235 235 235 236 238 239 240 240 241 242 243 244 245 248 250 253 256 259 261 262 264 265 265 265 267 269 270 271 271 271 272 268 251 240 239 241 244 247 248 249 254 259 263 266 270 275 278 278 279 283 290 294 296 298 299 300 300 297 295 294 295 297 300 302 302 300 300 304 307 302 302 305 304 301 302 303 302 303 304 304 301
237 238 237 237 237 236 236 237 238 239 239 240 242 243 244 244 245 248 250 253 255 257 258 261 263 264 266 268 270 270 269 269 270 270 271 265 246 238 236 237 241 244 244 247 254 259 262 267 272 275 275 275 279 285 291 294 295 296 297 297 296 296 297 297 298 300 303 303 303 300 300 304 307 303 303 305 303 301 302 302 303 306 307 305 301
238 239 239 239 239 238 238 238 239 239 239 240 242 243 244 244 245 247 248 250 252 254 256 259 260 263 265 268 272 275 274 274 273 272 270 256 236 232 233 235 239 240 241 247 254 258 264 269 271 271 271 274 281 288 291 293 294 293 293 293 295 298 299 300 301 302 304 303 303 303 302 305 308 307 305 306 305 303 304 307 309 310 308 302 299
237 238 239 240 240 240 240 240 240 240 240 241 243 244 244 244 244 245 246 247 248 251 254 256 257 259 262 263 267 271 275 276 275 269 258 242 229 225 228 233 234 234 240 248 253 258 264 266 265 266 271 278 285 290 292 293 293 293 293 294 297 298 298 299 300 301 302 303 304 305 305 308 312 311 309 309 308 307 309 312 313 312 308 302 298
238 239 240 241 241 241 241 241 241 241 242 242 243 244 244 244 243 244 244 244 246 247 250 253 255 256 257 260 262 266 269 271 268 257 242 231 224 220 221 227 230 233 241 247 250 256 260 261 262 269 277 284 288 290 293 294 296 296 295 294 295 296 297 299 300 301 302 303 307 309 309 312 315 315 314 313 310 309 312 315 316 315 312 308 305
240 240 240 241 241 242 243 243 242 243 244 244 244 244 244 243 242 242 242 241 242 243 246 250 252 252 253 254 257 262 265 264 262 253 234 220 216 216 221 227 231 237 242 243 247 254 257 259 266 276 283 288 290 293 297 299 300 298 296 295 297 299 302 302 302 304 305 306 310 312 312 313 315 315 316 315 312 312 316 318 317 316 316 315 313